Weather History for Sarasota, FL

Change the Weather History Date:

Thursday, December 31, 2009

  Actual Average Record
Temperature  
Mean Temperature 65 °F 61 °F  
Max Temperature 76 °F 71 °F 87 °F (1990)
Min Temperature 53 °F 52 °F 29 °F (1926)
Degree Days  
Heating Degree Days 0 5  
Month to date heating degree days 104 120  
Since 1 July heating degree days 137 155  
Cooling Degree Days 0 2  
Month to date cooling degree days 92 74  
Year to date cooling degree days 3573 3374  
Growing Degree Days 14 (Base 50)    
Moisture  
Dew Point 56 °F    
Average Humidity 73    
Maximum Humidity 89    
Minimum Humidity 54    
Precipitation  
Precipitation 0.00 in 0.07 in 3.12 in (2002)
Month to date precipitation 1.81 2.53  
Year to date precipitation 32.77 53.01  
Sea Level Pressure  
Sea Level Pressure 30.12 in    
Wind  
Wind Speed 7 mph (SSE)    
Max Wind Speed 15 mph    
Max Gust Speed 20 mph    
Visibility 10 miles    
Events      
T = Trace of Precipitation, MM = Missing Value Source: NWS Daily Summary

Daily Weather History Graph

Daily Weather History Graph

Search for Another Location

Airport:

Trip Planner

Search our weather history database for the weather conditions in past years. The results will help you decide how hot, cold, wet, or windy it might be!

Date:

Astronomy

Dec. 31, 2009 Rise Set
Actual Time 7:20 AM EST 5:46 PM EST
Civil Twilight 6:54 AM EST 6:12 PM EST
Nautical Twilight 6:25 AM EST 6:41 PM EST
Astronomical Twilight 5:57 AM EST 7:09 PM EST
Moon 5:51 PM EST (12/31) 7:10 AM EST (12/31)
Length of Visible Light 11h 17m
Length of Day
10h 26m
Full, 100% of the Moon is Illuminated
Dec 31
Full
Dec 31
Full
Jan 7
Last Quarter
Jan 15
New
Jan 23
First Quarter

Hourly Weather History & Observations

Time (EST) Temp. Dew Point Humidity Pressure Visibility Wind Dir Wind Speed Gust Speed Precip Events Conditions
12:53 AM 55.9 °F 50.0 °F 80% 30.16 in 10.0 mi Calm Calm - N/A   Clear
1:53 AM 55.9 °F 50.0 °F 80% 30.15 in 10.0 mi ESE 3.5 mph - N/A   Clear
2:53 AM 55.9 °F 51.1 °F 84% 30.15 in 10.0 mi Calm Calm - N/A   Mostly Cloudy
3:53 AM 54.0 °F 50.0 °F 86% 30.14 in 10.0 mi ESE 4.6 mph - N/A   Scattered Clouds
4:53 AM 55.9 °F 51.1 °F 84% 30.13 in 10.0 mi East 3.5 mph - N/A   Clear
5:53 AM 55.0 °F 51.1 °F 86% 30.13 in 10.0 mi East 3.5 mph - N/A   Clear
6:53 AM 54.0 °F 50.0 °F 86% 30.13 in 10.0 mi ESE 4.6 mph - N/A   Clear
7:53 AM 57.0 °F 52.0 °F 83% 30.15 in 10.0 mi East 3.5 mph - N/A   Clear
8:53 AM 63.0 °F 55.9 °F 78% 30.16 in 10.0 mi ESE 5.8 mph - N/A   Clear
9:53 AM 70.0 °F 57.9 °F 65% 30.17 in 10.0 mi SSE 8.1 mph - N/A   Clear
10:53 AM 73.9 °F 57.9 °F 57% 30.16 in 10.0 mi SSE 11.5 mph - N/A   Clear
11:53 AM 75.9 °F 57.9 °F 54% 30.14 in 10.0 mi South 11.5 mph - N/A   Partly Cloudy
12:53 PM 75.0 °F 59.0 °F 57% 30.11 in 10.0 mi South 12.7 mph - N/A   Mostly Cloudy
1:53 PM 75.0 °F 59.0 °F 57% 30.07 in 10.0 mi South 12.7 mph - N/A   Partly Cloudy
2:53 PM 73.9 °F 59.0 °F 59% 30.08 in 10.0 mi South 9.2 mph - N/A   Mostly Cloudy
3:53 PM 73.0 °F 59.0 °F 61% 30.08 in 10.0 mi South 12.7 mph - N/A   Scattered Clouds
4:53 PM 72.0 °F 60.1 °F 66% 30.07 in 10.0 mi South 12.7 mph - N/A   Clear
5:53 PM 70.0 °F 60.1 °F 71% 30.08 in 10.0 mi South 10.4 mph - N/A   Clear
7:53 PM 68.0 °F 60.1 °F 76% 30.09 in 10.0 mi South 6.9 mph - N/A   Clear
8:53 PM 68.0 °F 61.0 °F 78% 30.09 in 10.0 mi South 6.9 mph - N/A   Partly Cloudy
9:53 PM 68.0 °F 61.0 °F 78% 30.09 in 10.0 mi South 6.9 mph - N/A   Mostly Cloudy
10:53 PM 68.0 °F 61.0 °F 78% 30.09 in 10.0 mi South 6.9 mph - N/A   Mostly Cloudy
11:53 PM 68.0 °F 61.0 °F 78% 30.07 in 10.0 mi South 6.9 mph - N/A   Overcast